This is the latest recevied weather packets stored in our database for station/object EA1FWM-12. If no packets are shown the sender has not sent any weather packets the latest 10 day(s).
| Time | Temp. | Humidity | Pressure | Rain* | Wind** | Luminosity | Snow |
|---|---|---|---|---|---|---|---|
| 1788001392 | 25° C | 62% | 1024.8 hPa | - | - | - | - |
| 1788000481 | 24.44° C | 63% | 1024.8 hPa | - | - | - | - |
| 1787999589 | 23.33° C | 65% | 1024.9 hPa | - | - | - | - |
| 1787998682 | 22.22° C | 66% | 1025 hPa | - | - | - | - |
| 1787997782 | 22.22° C | 66% | 1025 hPa | - | - | - | - |
| 1787996888 | 22.78° C | 65% | 1025.1 hPa | - | - | - | - |
| 1787995983 | 22.78° C | 67% | 1024.9 hPa | - | - | - | - |
| 1787995081 | 20.56° C | 71% | 1024.9 hPa | - | - | - | - |
| 1787994182 | 20° C | 69% | 1024.8 hPa | - | - | - | - |
| 1787993283 | 21.67° C | 66% | 1024.6 hPa | - | - | - | - |
| 1787992382 | 23.33° C | 68% | 1024.7 hPa | - | - | - | - |
| 1787991490 | 22.78° C | 74% | 1024.8 hPa | - | - | - | - |
| 1787990590 | 20.56° C | 76% | 1024.7 hPa | - | - | - | - |
| 1787982491 | 11.67° C | 87% | 1024.2 hPa | - | - | - | - |
| 1787977093 | 11.11° C | 86% | 1024.5 hPa | - | - | - | - |
| 1787974386 | 11.67° C | 86% | 1024.7 hPa | - | - | - | - |
| 1787972591 | 13.89° C | 86% | 1024.5 hPa | - | - | - | - |
| 1787971655 | 11.67° C | 86% | 1024.5 hPa | - | - | - | - |
| 1787964450 | 11.11° C | 85% | 1024.9 hPa | - | - | - | - |
| 1787959046 | 12.78° C | 85% | 1025.7 hPa | - | - | - | - |
| 1787957243 | 12.78° C | 84% | 1025.7 hPa | - | - | - | - |
| 1787953641 | 12.78° C | 83% | 1025.9 hPa | - | - | - | - |
| 1787950939 | 12.78° C | 82% | 1025.7 hPa | - | - | - | - |
| 1787950039 | 12.22° C | 80% | 1025.7 hPa | - | - | - | - |
| 1787947338 | 13.33° C | 79% | 1025.6 hPa | - | - | - | - |
* Rain since midnight (hover to see other rain measurements)
** Current wind speed in m/s (hover to see current wind gust speed)